STARLINK-5686, 55450

Orbit data source: Space-Track

STARLINK-5686, 55450 is a payload satellite owned by SpaceX/Seattle (US) in LEO that was launched on Thu, 02 Feb 2023 UTC via an FALCON 9 launch vehicle from the Air Force Eastern Test Range (AFETR). Payload-class satellites include a variety of spacecraft equipped with specific instruments for various scientific and technological missions. These include communications satellites like Starlink; space stations such as the ISS; scientific satellites like the Hubble; Earth observation satellites from companies like Planet Labs, Umbra, and HawkEye 360; GPS; miniature CubeSats for education and research; and military/defense satellites.

Loading next visibility...
Identifier
55450, 2023-015B
Orbit
LEO
Country
Flag of USUS
Related business
Manufacturer
SpaceX/Seattle
Mission
Operational Commercial Communications
Bus & Motor
STARLINK, Unknown motor
Mass
305 kg wet, ~290 kg dry
Launch date (UTC)
2023-02-02 (3 years ago)
Launch vehicle
FALCON 9
Launch site
Air Force Eastern Test Range (AFETR)
Object type
Payload
Rocket body
Debris
Shape & HBR
Box + 1 Pan, 10.1 m
Radar Cross Section
13.562 m², Large (>1 m²)

Expand to show TLE details & history
Last TLE update: 14 hours ago

TLE from 14 hours ago
0 STARLINK-5686
1 55450U 23015B   25340.45584928  .00000127  00000-0  24483-4 0  9994
2 55450  43.0030 113.0767 0001387 267.8644  92.2039 15.02536797157667
Epoch: 2025-12-06T10:56Z
TLE epoch observation values (Epoch: 2025-12-06T10:56:25.377Z)
Latitude
-0.00007°
Longitude
-126.51244°
Altitude
558.892 km
Speed
7.584 km/s
True Right ascension
07h 32m 18s
True Declination
0° 00' 00"
Sunlit
Object was in full shadow at epoch
Visualization orbit readout
Latitude
Unknown
Longitude
Unknown
Altitude
Unknown
Speed
Unknown
Apparent Right ascension
Unknown
Apparent Declination
Unknown
Sunlit
N/A
Visualization observer readout
Local Sidereal Time
23:26:15
Azimuth
Unknown
Elevation
Unknown
Doppler factor
Unknown
Orbital elements
Apogee altitude
561.963 km
Perigee altitude
560.038 km
Semi-major axis
6,939.138 km
Eccentricity
0.00014
Inclination
43.003°
RAAN
113.0767°
Arg. of periapsis
267.8644°
True anomaly
92.21978°
Mean anomaly
92.2039°
Eccentric anomaly
92.21184°
Mean motion
3.75478 °/min
Orbital period
95.88 mins
BSTAR
0.000024483
Loading maneuver chart data...
Computing Atmospheric mass density...
Loading historical data...
Loading historical data...
Loading historical data...
Loading historical data...
Loading historical data...
Loading historical data...
Loading historical data...

Documentation

Showing up to 5 results
|